Weather in Minas

Uruguay     34°22′06″S   55°14′21″W
temp.,
°C
wind,
m/s
gust,
m/s
humid.,
%
clouds,
%
prec.,
mm/h
press.,
hPa
HPBL,
m
9 august, tue
tue900:00+6ese3384100 0.0 103038
03:00+6se3686100 0.0 103088
06:00+5ese399096 0.0 1030172
09:00+8ese488489 0.0 1031359
12:00+12se56585 0.0 10311188
15:00+13se56545 0.0 10301404
18:00+8se46772 0.0 1030104
21:00+5se35920 0.0 103278
10 august, wed
wed1000:00+4se22930 0.0 103120
03:00+4se22920 0.0 103012
06:00+3ese22870 0.0 102910
09:00+7ese23800 0.0 1029134
12:00+12e34580 0.0 10291009
15:00+14ene335430 0.0 10261223
18:00+9ne227596 0.0 102613
21:00+7ene3488100 0.0 102674
11 august, thu
thu1100:00+6ene3587100 0.0 102685
03:00+5ne33915 0.0 102628
06:00+4ne22920 0.0 102618
09:00+8nne24850 0.0 1027153
12:00+14n56600 0.0 1026857
15:00+15nnw56570 0.0 10231186
18:00+11n33780 0.0 102232
21:00+8ne34880 0.0 102347
12 august, fri
fri1200:00+7ne34895 0.0 102249
03:00+7ne34925 0.0 102160
06:00+6ne479314 0.0 1021130
09:00+10ne4118558 0.0 1021291
12:00+15nne696898 0.0 1019675
15:00+17nne6765100 0.0 10171048
18:00+13nne3586100 0.0 101674
21:00+12ne3692100 0.0 1018115
13 august, sat
sat1300:00+11ne389442 0.0 1018164
03:00+10nne34950 0.0 101854
06:00+10n22940 0.0 101830
09:00+13n22870 0.0 1019122
12:00+18nnw21700 0.0 1019678
15:00+20nne22592 0.0 10161141
18:00+15ne33824 0.0 101738
21:00+13ene46900 0.0 101784